Weather History for Lake Charles, LA

Change the Weather History Date:

Wednesday, October 12, 2011

  Actual Average Record
Temperature  
Mean Temperature 74 °F -  
Max Temperature 86 °F 78 °F 89 °F (2013)
Min Temperature 62 °F 62 °F 44 °F (2000)
Cooling Degree Days 9    
Growing Degree Days 24 (Base 50)    
Moisture  
Dew Point 64 °F    
Average Humidity 84    
Maximum Humidity 100    
Minimum Humidity 45    
Precipitation  
Precipitation 0.00 in - - ()
Sea Level Pressure  
Sea Level Pressure 29.83 in    
Wind  
Wind Speed 3 mph (SSW)    
Max Wind Speed 15 mph    
Max Gust Speed 18 mph    
Visibility 5 miles    
Events Fog , Thunderstorm    
Averages and records for this station are not official NWS values.
T = Trace of Precipitation, MM = Missing Value Source: NWS Daily Summary

Daily Weather History Graph

Daily Weather History Graph

Search for Another Location

Airport:

Trip Planner

Search our weather history database for the weather conditions in past years. The results will help you decide how hot, cold, wet, or windy it might be!

Date:

Astronomy

Oct. 12, 2011 Rise Set
Actual Time 7:12 AM CDT 6:45 PM CDT
Civil Twilight 6:48 AM CDT 7:09 PM CDT
Nautical Twilight 6:20 AM CDT 7:37 PM CDT
Astronomical Twilight 5:52 AM CDT 8:04 PM CDT
Moon 6:56 PM CDT (10/12) 7:40 AM CDT (10/12)
Length of Visible Light 12h 20m
Length of Day
11h 32m
Full, 100% of the Moon is Illuminated
Oct 12
Full
Oct 19
Last Quarter
Oct 26
New
Nov 2
First Quarter
Nov 10
Full

Hourly Weather History & Observations

Time (CDT) Temp. Heat Index Dew Point Humidity Pressure Visibility Wind Dir Wind Speed Gust Speed Precip Events Conditions
12:15 AM 68.0 °F - 64.4 °F 88% 29.87 in 7.0 mi East 3.5 mph - N/A   Clear
12:35 AM 66.2 °F - 64.4 °F 94% 29.86 in 5.0 mi East 3.5 mph - N/A   Clear
12:55 AM 64.4 °F - 62.6 °F 94% 29.86 in 5.0 mi Calm Calm - N/A   Clear
1:15 AM 68.0 °F - 64.4 °F 88% 29.85 in 7.0 mi Calm Calm - N/A   Clear
1:35 AM 66.2 °F - 64.4 °F 94% 29.85 in 2.5 mi Calm Calm - N/A   Clear
1:55 AM 66.2 °F - 64.4 °F 94% 29.85 in 4.0 mi Calm Calm - N/A   Clear
2:35 AM 64.4 °F - 62.6 °F 94% 29.84 in 5.0 mi Calm Calm - N/A   Clear
2:55 AM 64.4 °F - 64.4 °F 100% 29.84 in 2.0 mi Calm Calm - N/A   Clear
3:15 AM 64.4 °F - 62.6 °F 94% 29.84 in 4.0 mi Calm Calm - N/A   Clear
3:35 AM 64.4 °F - 62.6 °F 94% 29.84 in 1.0 mi East 3.5 mph - N/A   Mostly Cloudy
3:55 AM 64.4 °F - 62.6 °F 94% 29.84 in 0.2 mi Calm Calm - N/A Fog Fog
4:15 AM 64.4 °F - 62.6 °F 94% 29.83 in 0.2 mi Calm Calm - N/A Fog Fog
4:35 AM 62.6 °F - 62.6 °F 100% 29.83 in 0.2 mi Calm Calm - N/A Fog Fog
4:55 AM 62.6 °F - 62.6 °F 100% 29.83 in 0.2 mi Calm Calm - N/A Fog Fog
5:15 AM 62.6 °F - 60.8 °F 94% 29.83 in 0.2 mi Calm Calm - N/A Fog Fog
5:35 AM 62.6 °F - 60.8 °F 94% 29.83 in 0.2 mi Calm Calm - N/A Fog Fog
5:55 AM 62.6 °F - 60.8 °F 94% 29.83 in 0.2 mi Calm Calm - N/A Fog Fog
6:00 AM 62.6 °F - 62.6 °F 100% 29.83 in - Calm Calm - N/A Fog Fog
6:45 AM 62.6 °F - 62.6 °F 100% 29.84 in 0.2 mi Calm Calm - N/A Fog Fog
7:55 AM 64.4 °F - 64.4 °F 100% 29.85 in 0.2 mi Calm Calm - N/A Fog Fog
8:50 AM 66.2 °F - 66.2 °F 100% 29.96 in 0.2 mi Calm Calm - N/A Fog Fog
9:30 AM 71.6 °F - 69.8 °F 94% 29.86 in 4.0 mi Calm Calm - N/A   Clear
9:50 AM 75.2 °F - 71.6 °F 89% 29.86 in 7.0 mi Calm Calm - N/A   Clear
10:50 AM 80.6 °F 83.2 °F 68.0 °F 65% 29.86 in 10.0 mi SW 9.2 mph - N/A   Scattered Clouds
11:50 AM 84.2 °F 85.0 °F 62.6 °F 48% 29.85 in 10.0 mi South 8.1 mph - N/A   Scattered Clouds
12:50 PM 84.2 °F 85.6 °F 64.4 °F 51% 29.83 in 10.0 mi South 9.2 mph - N/A   Mostly Cloudy
2:59 PM 86.0 °F 86.6 °F 62.6 °F 45% 29.79 in 10.0 mi SSW 11.5 mph 16.1 mph N/A   Scattered Clouds
3:50 PM 86.0 °F 86.6 °F 62.6 °F 45% 29.78 in 10.0 mi South 15.0 mph - N/A   Scattered Clouds
4:50 PM 84.2 °F 85.0 °F 62.6 °F 48% 29.77 in 10.0 mi SSW 10.4 mph 18.4 mph N/A   Clear
5:50 PM 82.4 °F 84.6 °F 66.2 °F 58% 29.77 in 10.0 mi South 8.1 mph - N/A   Scattered Clouds
6:55 PM 78.8 °F - 66.2 °F 65% 29.78 in 10.0 mi SSW 8.1 mph - N/A   Clear
7:50 PM 78.8 °F - 68.0 °F 69% 29.79 in 10.0 mi SSW 4.6 mph - N/A   Clear
8:58 PM 78.8 °F - 68.0 °F 69% 29.82 in 7.0 mi WSW 10.4 mph - N/A Thunderstorm Thunderstorm
9:45 PM 73.4 °F - 66.2 °F 78% 29.81 in 7.0 mi SW 9.2 mph - N/A Thunderstorm Thunderstorm
10:15 PM 71.6 °F - 68.0 °F 88% 29.82 in 10.0 mi NW 3.5 mph - N/A   Clear
10:35 PM 69.8 °F - 68.0 °F 94% 29.82 in 10.0 mi NW 4.6 mph - N/A   Clear
11:15 PM 68.0 °F - 64.4 °F 88% 29.83 in 10.0 mi NNW 4.6 mph - N/A   Clear
11:35 PM 68.0 °F - 66.2 °F 94% 29.83 in 10.0 mi Calm Calm - N/A   Clear